This is the latest recevied weather packets stored in our database for station/object KM4NDN. If no packets are shown the sender has not sent any weather packets the latest 10 day(s).
| Time | Temp. | Humidity | Pressure | Rain* | Wind** | Luminosity | Snow |
|---|---|---|---|---|---|---|---|
| 1777988802 | 17.22° C | 64% | 1004.2 hPa | 0 mm | - | 410 W/m² | - |
| 1777988500 | 17.22° C | 64% | 1004.1 hPa | 0 mm | - | 410 W/m² | - |
| 1777988197 | 17.22° C | 66% | 1003.6 hPa | 0 mm | - | 325 W/m² | - |
| 1777987893 | 17.22° C | 65% | 1004 hPa | 0 mm | - | 331 W/m² | - |
| 1777987589 | 17.22° C | 67% | 1004.3 hPa | 0 mm | - | 348 W/m² | - |
| 1777987287 | 17.22° C | 65% | 1004 hPa | 0 mm | - | 367 W/m² | - |
| 1777986983 | 17.22° C | 65% | 1004 hPa | 0 mm | - | 185 W/m² | - |
| 1777986681 | 17.22° C | 66% | 1003.9 hPa | 0 mm | - | 356 W/m² | - |
| 1777986379 | 17.22° C | 65% | 1003.9 hPa | 0 mm | - | 337 W/m² | - |
| 1777986078 | 17.22° C | 65% | 1004.1 hPa | 0 mm | - | 319 W/m² | - |
| 1777985774 | 17.22° C | 65% | 1003.8 hPa | 0 mm | - | 324 W/m² | - |
| 1777985471 | 16.67° C | 67% | 1004.1 hPa | 0 mm | - | 331 W/m² | - |
| 1777985167 | 16.67° C | 67% | 1004 hPa | 0 mm | - | 276 W/m² | - |
| 1777984863 | 16.67° C | 68% | 1003.7 hPa | 0 mm | - | 147 W/m² | - |
| 1777984560 | 16.67° C | 67% | 1003.9 hPa | 0 mm | - | 189 W/m² | - |
| 1777984256 | 16.11° C | 68% | 1004 hPa | 0 mm | - | 196 W/m² | - |
| 1777983953 | 16.11° C | 67% | 1004 hPa | 0 mm | - | 138 W/m² | - |
| 1777983650 | 16.11° C | 67% | 1003.8 hPa | 0 mm | - | 145 W/m² | - |
| 1777983347 | 16.11° C | 67% | 1003.6 hPa | 0 mm | - | 119 W/m² | - |
| 1777983043 | 16.11° C | 68% | 1003.7 hPa | 0 mm | - | 111 W/m² | - |
| 1777982740 | 16.11° C | 67% | 1003.7 hPa | 0 mm | - | 97 W/m² | - |
| 1777982436 | 16.11° C | 67% | 1003.5 hPa | 0 mm | - | 85 W/m² | - |
| 1777982130 | 16.11° C | 67% | 1003.4 hPa | 0 mm | - | 76 W/m² | - |
| 1777981828 | 16.11° C | 67% | 1003.3 hPa | 0 mm | - | 58 W/m² | - |
| 1777981525 | 16.11° C | 66% | 1003.5 hPa | 0 mm | - | 46 W/m² | - |
* Rain latest hour (hover to see other rain measurements)
** Current wind speed in m/s (hover to see current wind gust speed)